Skip Page Navigation
NASA JPL Caltech
NASA Logo - Jet Propulsion Laboratory + View the NASA Portal
+ Center for Near-Earth Object Studies
JPL Home Earth Solar System Stars & Galaxies Technology
JPL Solar System Dynamics
BODIES ORBITS EPHEMERIDES TOOLS PHYSICAL DATA DISCOVERY FAQ SITE MAP
IMPORTANT: The SSD Announcement email list is now available. Major changes are coming in the near future, including possible hostname and/or URL changes. To be notified of such changes, subscribe to this email list.

Please visit this page for more details.


JPL Small-Body Database Browser
Search: [ help ]  
536 Merapi (A904 JF)
Classification: Outer Main-belt Asteroid          SPK-ID: 2000536
Ephemeris | Orbit Diagram | Orbital Elements | Mission Design | Physical Parameters | Discovery Circumstances | Close-Approach Data ]

[ show orbit diagram ]
Orbital Elements at Epoch 2458600.5 (2019-Apr-27.0) TDB
Reference: JPL 94 (heliocentric ecliptic J2000)
 Element Value Uncertainty (1-sigma)   Units 
e .08624124385362211 4.0309e-08  
a 3.500205602536302 1.8904e-08 au
q 3.198343517630154 1.3625e-07 au
i 19.42441266558076 5.4295e-06 deg
node 59.22753499947413 1.1482e-05 deg
peri 295.5678638145196 3.1105e-05 deg
M 93.19320959080582 2.924e-05 deg
tp 2457981.314854793783
(2017-Aug-15.81485479)
0.00019399 TDB
period 2391.876546080773
6.55
1.9377e-05
5.305e-08
d
yr
n .1505094402091449 1.2193e-09 deg/d
Q 3.802067687442449 2.0534e-08 au
  Orbit Determination Parameters
   # obs. used (total)      2177  
   data-arc span      41994 days (114.97 yr)  
   first obs. used      1904-05-13  
   last obs. used      2019-05-04  
   planetary ephem.      DE431  
   SB-pert. ephem.      SB431-N16  
   condition code      0  
   norm. resid. RMS      .44346  
   source      ORB  
   producer      Otto Matic  
   solution date      2019-May-29 19:09:12  

Additional Information
 Earth MOID = 2.25327 au 
 Jupiter MOID = 1.67641 au 
 T_jup = 3.028 
[ show covariance matrix ]

Ephemeris | Orbit Diagram | Orbital Elements | Mission Design | Physical Parameters | Discovery Circumstances | Close-Approach Data ]

Physical Parameter Table
Parameter Symbol Value Units Sigma Reference Notes
absolute magnitude H 8.2   n/a MPO347516  
diameter diameter 147.066 km 5.524 urn:nasa:pds:neowise_diameters_albedos::2.0[mainbelt] (http://adsabs.harvard.edu/abs/2014ApJ...791..121M)  
rotation period rot_per 8.78 h n/a LCDB (Rev. 2019-January); Warner et al., 2009 Published Reference List:
[Koff, R.A. (2000) Minor Planet Bull. 27, 26-27.]
[Ditteon, R.; Hawkins, S. (2007) Minor Planet Bull. 34, 59-64.]
geometric albedo albedo 0.048   0.005 urn:nasa:pds:neowise_diameters_albedos::2.0[mainbelt] (http://adsabs.harvard.edu/abs/2014ApJ...791..121M)  
B-V BV 0.694   0.023 EAR-A-5-DDR-UBV-MEAN-VALUES-V1.2 #obs=2; phase (min.=7.16, mean=8.15, max.=9.13) deg.
U-B UB 0.294   0.027 EAR-A-5-DDR-UBV-MEAN-VALUES-V1.2 #obs=2; phase (min.=7.16, mean=8.15, max.=9.13) deg.
Tholen spectral type spec_T X   n/a EAR-A-5-DDR-TAXONOMY-V4.0 used 7 color indices

536 Merapi (A904 JF)          Discovered 1904-May-11 by Peters, G. H. at Washington
Reference: DISCOVERY.DBLast Updated: 2003-08-29

[ show close-approach data ]
Alternate Designations
 A904 JF = 1950 KE = 1957 LP 
Ephemeris | Orbit Diagram | Orbital Elements | Mission Design | Physical Parameters | Discovery Circumstances | Close-Approach Data ]
ABOUT SSD CREDITS/AWARDS PRIVACY/COPYRIGHT GLOSSARY LINKS
FirstGov 2019-Oct-16 23:22 UT
(server date/time)  
NASA Home Page
Site Manager:   Ryan S. Park
Webmaster  Alan B. Chamberlin